sat.trackr.live / text

‹ back to catalog

HULIANWANG DIGUI-36

NORAD 64957 · 2025-159B

PAYLOAD ACTIVE UNKNOWN

§ Identity

Operator
Country
PRC
Launch date
2025-07-27
Launch site
TAISC
Launch vehicle
Mass (kg)
RCS (m²)

External: N2YO · Heavens-Above · Gunter

§ Orbital elements

Epoch: 2026-05-25T04:55:24.362112Z

Period
108.73 min
Inclination
86.4944°
Eccentricity
0.0001999
Mean motion
13.24405916 rev/d
Perigee alt
1,166.4 km
Apogee alt
1,169.4 km
Semi-major
7,546.1 km
B*
1.0706e-4
RAAN
290.2508°
Arg perigee
92.3554°
Mean anomaly
267.7809°
Rev number
4,008

§ Raw data

HULIANWANG DIGUI-361 64957U 25159B   26145.20514308  .00000061  00000+0  10706-3 0  99972 64957  86.4944 290.2508 0001999  92.3554 267.7809 13.24405916 40086

JSON: /api/v1/satellites/64957 · /tle

For live sub-satellite position, see the globe view (requires WebGL).

§ Visibility from observer

Set your observer location to see the next 7 days of passes ≥ 10°. The values pass through the URL so the page stays shareable.

No JS? Fill the form by hand. The geolocation button needs JavaScript.